Showing default

BADR B, 27003

Orbit data source: Space-Track

BADR B, 27003 is a payload satellite owned by SUPARCO (PK) in SSO that was launched on Mon, 10 Dec 2001 UTC via a ZENIT-2 launch vehicle from the Tyuratam Missile And Space Complex (TTMTR). Payload-class satellites include a variety of spacecraft equipped with specific instruments for various scientific and technological missions. These include communications satellites like Starlink; space stations such as the ISS; scientific satellites like the Hubble; Earth observation satellites from companies like Planet Labs, Umbra, and HawkEye 360; GPS; miniature CubeSats for education and research; and military/defense satellites.

Loading next visibility...
Identifier
27003, 2001-056C
Orbit
SSO
Last TLE update
15 hours ago
Origin
Manufacturer
SIL
Mission
Non-operational Civil Imaging
Bus & Motor
MICROSIL, Unknown motor
Mass
69 kg wet, 69 kg dry
Launch date (UTC)
2001-12-10 (24 years ago)
Launch vehicle
ZENIT-2
Launch site
Tyuratam Missile And Space Complex (TTMTR)
Object type
Payload
Rocket body
Debris
Shape & HBR
Box + 1 Arm, 6.5 m
Radar Cross Section
0.375 m², Medium (>0.1 m² and < 1m²)

Expand to show TLE details & history

TLE from 15 hours ago
0 BADR B
1 27003U 01056C   25183.92235539 -.00000009  00000-0  42247-4 0  9994
2 27003  99.7737 348.5058 0019619 313.4034  46.5477 13.70383617178102
Epoch: 2025-07-02T22:08Z
TLE epoch observation values (Epoch: 2025-07-02T22:08:11.505Z)
Latitude
-0.00009°
Longitude
95.26137°
Altitude
991.065 km
Speed
7.361 km/s
True Right ascension
23h 14m 01s
True Declination
0° 00' 00"
Sunlit
Object was in daylight at epoch
Visualization orbit readout
Latitude
-59.38596°
Longitude
-100.93013°
Altitude
1,016.342 km
Speed
7.345 km/s
Apparent Right ascension
11h 49m 55s
Apparent Declination
-52° 18' 39"
Sunlit
Object is in daylight
Visualization observer readout
Local Sidereal Time
01:06:25
Azimuth
139.713° SSE
Elevation
-71.955°
Doppler factor
1
Orbital elements
Apogee altitude
1,009.938 km
Perigee altitude
981.006 km
Semi-major axis
7,373.609 km
Eccentricity
0.00196
Inclination
99.7737°
RAAN
348.5058°
Arg. of periapsis
313.4034°
True anomaly
Unknown
Mean anomaly
46.5477°
Eccentric anomaly
Unknown
Mean motion
3.42786 °/min
Orbital period
105.02 mins
BSTAR
0.000042247
Loading maneuver chart data...
Loading SW <> Apogee altitude chart data...
Loading historical data...
Loading historical data...
Loading historical data...
Loading historical data...
Loading historical data...
Loading historical data...
Loading historical data...

BADR B Visibility forecast

Observer location: undefined°, undefined°

Span
Click to sort rows by Start time (UTC) header in descending order
Start Az.
Max El. time (UTC)
Max El. Az.
Max El.
End time (UTC)
End Az.
11 mins2025-07-03 23:15:37.164Z29.458° NE2025-07-03 23:21:37.164Z106.936° ESE34.142°2025-07-03 23:26:37.164Z167.554° S
9 mins2025-07-04 01:00:37.164Z347.678° N2025-07-04 01:04:37.164Z297.45° NW27.285°2025-07-04 01:09:37.164Z239.138° WSW
6 mins2025-07-04 09:22:37.164Z83.194° E2025-07-04 09:24:37.164Z60.324° ENE17.493°2025-07-04 09:28:37.164Z18.956° NNE
11 mins2025-07-04 11:02:37.164Z171.556° S2025-07-04 11:07:37.164Z250.431° W44.027°2025-07-04 11:13:37.164Z341.499° N
|